Weather History for KPRG - May, 2013

Change the Weather History Date:

Thursday, May 23, 2013

  Actual Average (KHUF) Record (KHUF)
Temperature  
Mean Temperature 55 °F 65 °F  
Max Temperature 65 °F 76 °F 90 °F (1964)
Min Temperature 44 °F 54 °F 37 °F (1963)
Degree Days  
Heating Degree Days 10 3  
Month to date heating degree days 117  
Since 1 July heating degree days 5337  
Cooling Degree Days 0 3  
Month to date cooling degree days 42  
Year to date cooling degree days 57  
Growing Degree Days 5 (Base 50)    
Moisture  
Dew Point 50 °F    
Average Humidity 78    
Maximum Humidity 91    
Minimum Humidity 68    
Precipitation  
Precipitation 0.00 in 0.22 in 2.17 in (1998)
Month to date precipitation 5.30  
Year to date precipitation 17.11  
Sea Level Pressure  
Sea Level Pressure 30.00 in    
Wind  
Wind Speed 10 mph (NW)    
Max Wind Speed 18 mph    
Max Gust Speed 28 mph    
Visibility 10 miles    
Events Rain    
T = Trace of Precipitation, MM = Missing Value Source: NWS Daily Summary

Daily Weather History Graph

Daily Weather History Graph

Search for Another Location

Airport or City:

Trip Planner

Search our weather history database for the weather conditions in past years. The results will help you decide how hot, cold, wet, or windy it might be!

Date:

Astronomy

May. 23, 2013 Rise Set
Actual Time 5:29 AM CDT 8:05 PM CDT
Civil Twilight 4:58 AM CDT 8:37 PM CDT
Nautical Twilight 4:19 AM CDT 9:16 PM CDT
Astronomical Twilight 3:35 AM CDT 9:59 PM CDT
Moon 6:38 PM CDT (5/23) 4:13 AM CDT (5/23)
Length of Visible Light 15h 38m
Length of Day
14h 36m
Waxing Gibbous, 97% of the Moon is Illuminated
May 23
Waxing Gibbous
May 24
Full
May 31
Last Quarter
Jun 8
New
Jun 16
First Quarter

Hourly Weather History & Observations

Time (CDT) Temp. Windchill Dew Point Humidity Pressure Visibility Wind Dir Wind Speed Gust Speed Precip Events Conditions
12:15 AM 63.5 °F - 55.4 °F 75% 29.83 in 10.0 mi West 9.2 mph - N/A   Overcast
12:35 AM 63.1 °F - 55.2 °F 75% 29.83 in 10.0 mi West 9.2 mph - N/A   Overcast
12:55 AM 62.6 °F - 55.4 °F 77% 29.83 in 10.0 mi West 5.8 mph - N/A   Overcast
1:15 AM 61.7 °F - 55.6 °F 80% 29.83 in 10.0 mi West 5.8 mph - N/A   Overcast
1:35 AM 60.8 °F - 55.6 °F 83% 29.84 in 10.0 mi West 5.8 mph - N/A   Mostly Cloudy
1:55 AM 60.4 °F - 55.4 °F 83% 29.83 in 10.0 mi WSW 3.5 mph - N/A   Mostly Cloudy
2:15 AM 60.4 °F - 55.8 °F 85% 29.83 in 10.0 mi WSW 6.9 mph - N/A   Overcast
2:35 AM 60.3 °F - 55.2 °F 83% 29.83 in 10.0 mi West 8.1 mph - N/A   Mostly Cloudy
2:55 AM 59.9 °F - 54.5 °F 82% 29.84 in 10.0 mi West 10.4 mph - N/A   Scattered Clouds
3:15 AM 59.9 °F - 54.5 °F 82% 29.84 in 10.0 mi WSW 8.1 mph - N/A   Mostly Cloudy
3:35 AM 59.9 °F - 54.5 °F 82% 29.85 in 10.0 mi West 9.2 mph - N/A   Overcast
3:55 AM 60.1 °F - 54.5 °F 82% 29.85 in 10.0 mi West 8.1 mph - N/A   Overcast
4:15 AM 59.9 °F - 54.5 °F 82% 29.85 in 10.0 mi WSW 5.8 mph - N/A   Overcast
4:35 AM 59.9 °F - 54.5 °F 82% 29.86 in 10.0 mi WSW 8.1 mph - N/A Rain Light Rain
4:55 AM 59.0 °F - 54.9 °F 86% 29.86 in 7.0 mi WSW 11.5 mph 16.1 mph N/A   Overcast
5:15 AM 58.6 °F - 55.4 °F 89% 29.86 in 10.0 mi WSW 6.9 mph - N/A   Overcast
5:35 AM 59.0 °F - 55.4 °F 88% 29.87 in 10.0 mi WSW 5.8 mph - N/A   Overcast
5:55 AM 59.4 °F - 55.4 °F 87% 29.87 in 10.0 mi WSW 5.8 mph - N/A   Overcast
6:15 AM 59.9 °F - 55.6 °F 86% 29.88 in 10.0 mi WSW 6.9 mph - N/A   Overcast
6:35 AM 59.9 °F - 55.8 °F 86% 29.89 in 10.0 mi WSW 8.1 mph - N/A   Overcast
6:55 AM 60.3 °F - 55.2 °F 83% 29.89 in 10.0 mi West 9.2 mph - N/A   Overcast
7:15 AM 60.3 °F - 54.3 °F 81% 29.90 in 10.0 mi West 10.4 mph - N/A   Overcast
7:35 AM 60.8 °F - 54.5 °F 80% 29.90 in 10.0 mi West 11.5 mph - N/A   Overcast
7:55 AM 61.0 °F - 54.5 °F 79% 29.91 in 10.0 mi West 11.5 mph - N/A   Overcast
8:15 AM 62.1 °F - 54.7 °F 77% 29.91 in 10.0 mi West 11.5 mph - N/A   Overcast
8:35 AM 62.6 °F - 54.3 °F 74% 29.92 in 10.0 mi West 11.5 mph - N/A   Overcast
8:55 AM 61.3 °F - 53.6 °F 76% 29.92 in 10.0 mi West 11.5 mph - N/A   Overcast
9:15 AM 62.2 °F - 53.6 °F 73% 29.92 in 10.0 mi West 13.8 mph - N/A   Overcast
9:35 AM 62.6 °F - 53.8 °F 73% 29.92 in 10.0 mi West 12.7 mph - N/A   Overcast
9:55 AM 61.9 °F - 54.0 °F 75% 29.93 in 10.0 mi WNW 10.4 mph - N/A   Overcast
10:15 AM 61.7 °F - 53.1 °F 73% 29.94 in 10.0 mi West 13.8 mph - N/A   Overcast
10:35 AM 61.5 °F - 53.2 °F 74% 29.95 in 10.0 mi WNW 16.1 mph 21.9 mph N/A   Overcast
10:55 AM 61.0 °F - 53.2 °F 76% 29.96 in 10.0 mi WNW 10.4 mph - N/A   Overcast
11:15 AM 63.7 °F - 54.3 °F 72% 29.96 in 10.0 mi WNW 8.1 mph - N/A   Overcast
11:35 AM 63.1 °F - 54.0 °F 72% 29.96 in 10.0 mi WNW 13.8 mph 18.4 mph N/A   Overcast
11:55 AM 63.5 °F - 54.5 °F 72% 29.96 in 10.0 mi WNW 13.8 mph 19.6 mph N/A   Overcast
12:15 PM 65.5 °F - 54.9 °F 68% 29.96 in 10.0 mi NW 11.5 mph - N/A   Overcast
12:35 PM 64.8 °F - 55.0 °F 71% 29.96 in 10.0 mi WNW 18.4 mph - N/A   Overcast
12:55 PM 64.6 °F - 55.6 °F 73% 29.97 in 10.0 mi WNW 12.7 mph 17.3 mph N/A   Overcast
1:15 PM 58.3 °F - 55.2 °F 90% 30.00 in 5.0 mi North 10.4 mph 16.1 mph N/A   Drizzle
1:35 PM 57.2 °F - 54.7 °F 91% 30.01 in 7.0 mi North 12.7 mph 19.6 mph N/A   Overcast
1:55 PM 57.2 °F - 54.0 °F 89% 30.02 in 10.0 mi North 13.8 mph 17.3 mph N/A   Overcast
2:15 PM 57.6 °F - 53.2 °F 85% 30.03 in 5.0 mi North 12.7 mph 19.6 mph N/A   Haze
2:35 PM 56.7 °F - 51.1 °F 82% 30.04 in 10.0 mi North 12.7 mph 23.0 mph N/A   Overcast
2:55 PM 56.1 °F - 50.0 °F 80% 30.05 in 10.0 mi North 11.5 mph 19.6 mph N/A   Overcast
3:15 PM 55.4 °F - 48.9 °F 79% 30.06 in 10.0 mi NNW 15.0 mph 21.9 mph N/A   Overcast
3:35 PM 55.4 °F - 48.7 °F 78% 30.07 in 10.0 mi North 15.0 mph 20.7 mph N/A   Overcast
3:55 PM 56.3 °F - 48.6 °F 75% 30.07 in 10.0 mi North 18.4 mph 24.2 mph N/A   Overcast
4:15 PM 55.4 °F - 46.9 °F 73% 30.08 in 10.0 mi North 13.8 mph 23.0 mph N/A   Overcast
4:35 PM 54.9 °F - 46.9 °F 75% 30.09 in 10.0 mi North 12.7 mph 21.9 mph N/A   Overcast
4:55 PM 55.0 °F - 46.6 °F 73% 30.10 in 10.0 mi North 15.0 mph 23.0 mph N/A   Overcast
5:15 PM 54.9 °F - 46.4 °F 73% 30.10 in 10.0 mi North 16.1 mph 23.0 mph N/A   Overcast
5:35 PM 54.7 °F - 46.0 °F 73% 30.11 in 10.0 mi North 12.7 mph 18.4 mph N/A   Overcast
5:55 PM 54.1 °F - 45.9 °F 74% 30.12 in 10.0 mi North 12.7 mph 20.7 mph N/A   Overcast
6:15 PM 53.2 °F - 45.5 °F 75% 30.14 in 10.0 mi North 12.7 mph 20.7 mph N/A   Overcast
6:35 PM 52.7 °F - 44.8 °F 74% 30.15 in 10.0 mi North 12.7 mph 20.7 mph N/A   Overcast
6:55 PM 52.2 °F - 44.6 °F 75% 30.16 in 10.0 mi North 11.5 mph 18.4 mph N/A   Overcast
7:15 PM 51.8 °F - 44.1 °F 75% 30.17 in 10.0 mi North 18.4 mph 24.2 mph N/A   Overcast
7:35 PM 51.3 °F - 43.2 °F 74% 30.17 in 10.0 mi North 15.0 mph 23.0 mph N/A   Overcast
7:55 PM 51.1 °F - 43.2 °F 74% 30.17 in 10.0 mi North 11.5 mph 20.7 mph N/A   Overcast
8:15 PM 51.1 °F - 43.3 °F 75% 30.18 in 10.0 mi North 11.5 mph 17.3 mph N/A   Overcast
8:35 PM 50.9 °F - 42.8 °F 74% 30.19 in 10.0 mi North 10.4 mph 16.1 mph N/A   Overcast
8:55 PM 50.4 °F - 41.9 °F 73% 30.20 in 10.0 mi North 10.4 mph 18.4 mph N/A   Overcast
9:15 PM 49.3 °F - 41.0 °F 73% 30.21 in 10.0 mi North 8.1 mph 19.6 mph N/A   Scattered Clouds
9:35 PM 48.6 °F - 39.0 °F 70% 30.22 in 10.0 mi North 10.4 mph 27.6 mph N/A   Clear
9:55 PM 47.7 °F - 38.7 °F 71% 30.23 in 10.0 mi North 10.4 mph 17.3 mph N/A   Clear
10:15 PM 47.1 °F - 38.3 °F 71% 30.23 in 10.0 mi North 13.8 mph 18.4 mph N/A   Clear
10:35 PM 46.6 °F - 37.9 °F 72% 30.23 in 10.0 mi North 13.8 mph 23.0 mph N/A   Clear
10:55 PM 46.0 °F 41.4 °F 37.9 °F 73% 30.23 in 10.0 mi North 9.2 mph 17.3 mph N/A   Clear
11:15 PM 45.5 °F 39.9 °F 37.8 °F 74% 30.23 in 10.0 mi North 11.5 mph 18.4 mph N/A   Clear
11:35 PM 45.5 °F 40.3 °F 36.5 °F 71% 30.24 in 10.0 mi North 10.4 mph 17.3 mph N/A   Clear
11:55 PM 44.8 °F 40.4 °F 36.5 °F 73% 30.24 in 10.0 mi North 8.1 mph - N/A   Clear